When you browse on this site, cookies collect data to enhance your experience and personalize the content and advertising you see.
Visit our Privacy Policy to learn more. By continuing to use the site, you agree to this use of cookies and data.
  • en France
  • Liste des pays
  • À 7 jours
  • Température de l'eau
  • Carte satellitaire
  • Carte météo
  • Widgets météo
  • user-avatar
    Se connecter

    Météo par heure à Tiranё

    Ce jour, 21 Mars, Jeudi

    Heure Température Précipitation Vent Pression Humidité
    00:00 +14°C° 0 mm 4 m/s 760 mmHg 65%
    01:00 +14°C° 0 mm 5 m/s 760 mmHg 64%
    02:00 +13°C° 0 mm 5 m/s 760 mmHg 64%
    03:00 +13°C° 0 mm 5 m/s 760 mmHg 63%
    04:00 +13°C° 0 mm 5 m/s 760 mmHg 63%
    05:00 +13°C° 0 mm 5 m/s 760 mmHg 63%
    06:00 +13°C° 0 mm 4 m/s 761 mmHg 63%
    07:00 +13°C° 0 mm 4 m/s 761 mmHg 63%
    08:00 +15°C° 0 mm 4 m/s 761 mmHg 57%
    09:00 +18°C° 0 mm 4 m/s 761 mmHg 50%
    10:00 +20°C° 0 mm 4 m/s 761 mmHg 43%
    11:00 +21°C° 0 mm 4 m/s 761 mmHg 41%
    12:00 +22°C° 0 mm 4 m/s 761 mmHg 38%
    13:00 +23°C° 0 mm 4 m/s 760 mmHg 36%
    14:00 +22°C° 0 mm 4 m/s 760 mmHg 37%
    15:00 +22°C° 0 mm 4 m/s 760 mmHg 38%
    16:00 +22°C° 0 mm 4 m/s 760 mmHg 39%
    17:00 +20°C° 0 mm 4 m/s 760 mmHg 44%
    18:00 +18°C° 0 mm 4 m/s 760 mmHg 48%
    19:00 +15°C° 0 mm 4 m/s 760 mmHg 52%
    20:00 +14°C° 0 mm 4 m/s 761 mmHg 54%
    21:00 +14°C° 0 mm 4 m/s 761 mmHg 56%
    22:00 +13°C° 0 mm 4 m/s 761 mmHg 57%
    23:00 +13°C° 0 mm 4 m/s 761 mmHg 58%

    Demain, 22 Mars, Vendredi

    Heure Température Précipitation Vent Pression Humidité
    00:00 +12°C° 0 mm 4 m/s 762 mmHg 59%
    01:00 +12°C° 0 mm 4 m/s 762 mmHg 60%
    02:00 +12°C° 0 mm 4 m/s 762 mmHg 61%
    03:00 +11°C° 0 mm 4 m/s 762 mmHg 62%
    04:00 +11°C° 0 mm 4 m/s 761 mmHg 63%
    05:00 +11°C° 0 mm 4 m/s 761 mmHg 63%
    06:00 +12°C° 0 mm 4 m/s 762 mmHg 63%
    07:00 +12°C° 0 mm 3 m/s 762 mmHg 63%
    08:00 +14°C° 0 mm 3 m/s 761 mmHg 55%
    09:00 +18°C° 0 mm 3 m/s 761 mmHg 48%
    10:00 +20°C° 0 mm 3 m/s 761 mmHg 40%
    11:00 +21°C° 0 mm 3 m/s 761 mmHg 38%
    12:00 +21°C° 0 mm 4 m/s 760 mmHg 36%
    13:00 +22°C° 0 mm 4 m/s 760 mmHg 33%
    14:00 +22°C° 0 mm 5 m/s 760 mmHg 36%
    15:00 +21°C° 0 mm 6 m/s 759 mmHg 38%
    16:00 +21°C° 0 mm 7 m/s 759 mmHg 40%
    17:00 +19°C° 0 mm 6 m/s 759 mmHg 47%
    18:00 +16°C° 0 mm 6 m/s 759 mmHg 54%
    19:00 +14°C° 0 mm 5 m/s 759 mmHg 61%
    20:00 +14°C° 0 mm 5 m/s 759 mmHg 59%
    21:00 +13°C° 0 mm 4 m/s 759 mmHg 58%
    22:00 +13°C° 0 mm 3 m/s 760 mmHg 56%
    23:00 +13°C° 0 mm 3 m/s 760 mmHg 55%

    Après-demain, 23 Mars, Samedi

    Heure Température Précipitation Vent Pression Humidité
    00:00 +12°C° 0 mm 3 m/s 759 mmHg 54%
    01:00 +12°C° 0 mm 3 m/s 759 mmHg 54%
    02:00 +13°C° 0 mm 2 m/s 759 mmHg 55%
    03:00 +12°C° 0 mm 2 m/s 759 mmHg 56%
    04:00 +12°C° 0 mm 2 m/s 759 mmHg 57%
    05:00 +13°C° 0 mm 2 m/s 759 mmHg 58%
    06:00 +13°C° 0 mm 2 m/s 759 mmHg 58%
    07:00 +13°C° 0 mm 2 m/s 759 mmHg 59%
    08:00 +16°C° 0 mm 2 m/s 758 mmHg 52%
    09:00 +18°C° 0 mm 2 m/s 758 mmHg 44%
    10:00 +20°C° 0 mm 2 m/s 758 mmHg 37%
    11:00 +21°C° 0 mm 3 m/s 758 mmHg 35%
    12:00 +22°C° 0 mm 3 m/s 758 mmHg 34%
    13:00 +23°C° 0 mm 4 m/s 757 mmHg 32%
    14:00 +22°C° 0 mm 5 m/s 757 mmHg 35%
    15:00 +22°C° 0 mm 6 m/s 757 mmHg 38%
    16:00 +21°C° 0 mm 7 m/s 757 mmHg 40%
    17:00 +19°C° 0 mm 6 m/s 757 mmHg 47%
    18:00 +17°C° 0 mm 6 m/s 757 mmHg 54%
    19:00 +15°C° 0 mm 5 m/s 757 mmHg 61%
    20:00 +14°C° 0 mm 4 m/s 758 mmHg 60%
    21:00 +14°C° 0 mm 3 m/s 758 mmHg 59%
    22:00 +15°C° 0 mm 2 m/s 758 mmHg 57%
    23:00 +14°C° 0 mm 2 m/s 758 mmHg 57%

    24 Mars, Dimanche

    Heure Température Précipitation Vent Pression Humidité
    00:00 +14°C° 0 mm 2 m/s 758 mmHg 56%
    01:00 +14°C° 0 mm 2 m/s 759 mmHg 55%
    02:00 +13°C° 0 mm 2 m/s 758 mmHg 55%
    03:00 +13°C° 0 mm 1 m/s 758 mmHg 55%
    04:00 +13°C° 0 mm 1 m/s 758 mmHg 56%
    05:00 +13°C° 0 mm 1 m/s 758 mmHg 56%
    06:00 +14°C° 0 mm 1 m/s 759 mmHg 57%
    07:00 +15°C° 0 mm 1 m/s 759 mmHg 58%
    08:00 +18°C° 0 mm 1 m/s 759 mmHg 51%
    09:00 +20°C° 0 mm 1 m/s 759 mmHg 45%
    10:00 +20°C° 0 mm 0 m/s 759 mmHg 39%
    11:00 +23°C° 0 mm 1 m/s 758 mmHg 39%
    12:00 +22°C° 0 mm 3 m/s 758 mmHg 39%
    13:00 +22°C° 0 mm 4 m/s 758 mmHg 39%
    14:00 +21°C° 0 mm 4 m/s 758 mmHg 43%
    15:00 +21°C° 0 mm 4 m/s 757 mmHg 46%
    16:00 +20°C° 0 mm 4 m/s 757 mmHg 49%
    17:00 +18°C° 0 mm 3 m/s 757 mmHg 56%
    18:00 +16°C° 0 mm 2 m/s 757 mmHg 63%
    19:00 +14°C° 0 mm 2 m/s 757 mmHg 70%
    20:00 +14°C° 0 mm 1 m/s 757 mmHg 71%
    21:00 +14°C° 0 mm 1 m/s 758 mmHg 71%
    22:00 +13°C° 0 mm 0 m/s 758 mmHg 71%
    23:00 +12°C° 0 mm 0 m/s 758 mmHg 71%

    25 Mars, Lundi

    Heure Température Précipitation Vent Pression Humidité
    00:00 +12°C° 0 mm 0 m/s 757 mmHg 71%
    01:00 +12°C° 0 mm 0 m/s 757 mmHg 71%
    02:00 +12°C° 0 mm 0 m/s 757 mmHg 71%
    03:00 +11°C° 0 mm 0 m/s 757 mmHg 71%
    04:00 +11°C° 0 mm 0 m/s 757 mmHg 71%
    05:00 +12°C° 0 mm 0 m/s 757 mmHg 69%
    06:00 +14°C° 0 mm 1 m/s 757 mmHg 67%
    07:00 +15°C° 0 mm 1 m/s 756 mmHg 64%
    08:00 +16°C° 0 mm 1 m/s 756 mmHg 59%
    09:00 +19°C° 0 mm 1 m/s 756 mmHg 54%
    10:00 +20°C° 0 mm 1 m/s 756 mmHg 48%
    11:00 +20°C° 0 mm 2 m/s 755 mmHg 48%
    12:00 +20°C° 0 mm 3 m/s 755 mmHg 48%
    13:00 +21°C° 0 mm 4 m/s 755 mmHg 48%
    14:00 +20°C° 0 mm 4 m/s 754 mmHg 51%
    15:00 +19°C° 0 mm 3 m/s 754 mmHg 53%
    16:00 +19°C° 0 mm 3 m/s 753 mmHg 56%
    17:00 +17°C° 0 mm 2 m/s 753 mmHg 64%
    18:00 +15°C° 0 mm 2 m/s 753 mmHg 72%
    19:00 +14°C° 0 mm 1 m/s 753 mmHg 79%
    20:00 +13°C° 0 mm 1 m/s 753 mmHg 80%
    21:00 +13°C° 0 mm 1 m/s 753 mmHg 80%
    22:00 +12°C° 0 mm 0 m/s 753 mmHg 80%
    23:00 +12°C° 0 mm 0 m/s 753 mmHg 80%

    26 Mars, Mardi

    Heure Température Précipitation Vent Pression Humidité
    00:00 +11°C° 0 mm 0 m/s 753 mmHg 81%
    01:00 +11°C° 0 mm 0 m/s 753 mmHg 81%
    02:00 +11°C° 0 mm 0 m/s 752 mmHg 80%
    03:00 +12°C° 0 mm 1 m/s 752 mmHg 80%
    04:00 +12°C° 0 mm 1 m/s 752 mmHg 79%
    05:00 +12°C° 0 mm 1 m/s 752 mmHg 77%
    06:00 +13°C° 0 mm 1 m/s 752 mmHg 74%
    07:00 +13°C° 0 mm 1 m/s 752 mmHg 72%
    08:00 +15°C° 0 mm 1 m/s 752 mmHg 66%
    09:00 +16°C° 0 mm 1 m/s 752 mmHg 59%
    10:00 +17°C° 0 mm 0 m/s 752 mmHg 52%
    11:00 +18°C° 0 mm 2 m/s 752 mmHg 51%
    12:00 +19°C° 0 mm 3 m/s 752 mmHg 50%
    13:00 +19°C° 0 mm 4 m/s 751 mmHg 49%
    14:00 +19°C° 0 mm 4 m/s 751 mmHg 52%
    15:00 +18°C° 0 mm 4 m/s 751 mmHg 55%
    16:00 +17°C° 0 mm 4 m/s 751 mmHg 58%
    17:00 +15°C° 0.1 mm 4 m/s 751 mmHg 65%
    18:00 +14°C° 0.1 mm 3 m/s 751 mmHg 73%
    19:00 +13°C° 0.1 mm 3 m/s 752 mmHg 81%
    20:00 +14°C° 0.6 mm 2 m/s 752 mmHg 83%
    21:00 +13°C° 0.6 mm 2 m/s 753 mmHg 84%
    22:00 +13°C° 0.6 mm 2 m/s 753 mmHg 86%
    23:00 +11°C° 0.4 mm 4 m/s 753 mmHg 85%
    Voir plus